"timestamp";"minute";"mean_h";"std_h";"mean_l";"std_l"
2019-10-31T23:00:56;1;-115.708374;6.3146505;-116.95074;6.106145
2019-10-31T23:05:56;1;-113.557724;6.7348113;-114.11862;6.849487
2019-10-31T23:10:56;1;-113.466064;6.3705964;-116.664925;6.0395055
2019-10-31T23:15:56;1;-115.1201;6.297793;-117.57212;5.6895876
2019-10-31T23:20:56;1;-104.47103;8.219606;-112.056;5.2132864
2019-10-31T23:25:56;1;-111.072464;5.874011;-109.9562;5.8053665
2019-10-31T23:30:56;1;-113.11206;7.393051;-117.13598;5.851427
2019-10-31T23:45:56;1;-115.996544;5.721442;-116.1741;5.8367896
2019-11-01T00:50:56;1;-112.839096;8.086688;-114.59023;7.073704
2019-11-01T00:55:56;1;-113.518684;7.732071;-114.520035;6.7553496
2019-11-01T01:00:56;1;-113.59415;7.2698374;-114.351814;6.024111
2019-11-01T01:05:56;1;-114.46403;7.4234686;-119.93018;5.384918
2019-11-01T01:10:56;1;-114.51956;7.1280107;-118.51977;5.835924
2019-11-01T01:15:56;1;-114.98957;7.035615;-120.32258;5.0025253
2019-11-01T01:20:56;1;-114.982025;7.069329;-119.58087;5.562462
2019-11-01T01:25:56;1;-115.57802;7.063494;-120.00243;5.3650036
2019-11-01T01:30:56;1;-114.88147;7.2243643;-119.54034;5.2934294
2019-11-01T01:35:56;1;-114.97626;6.8943415;-117.568085;6.1669073
2019-11-01T01:40:56;1;-115.018234;6.731185;-118.509834;5.4946594
2019-11-01T01:45:56;1;-115.82729;6.239325;-117.75506;5.6925435
2019-11-01T01:50:56;1;-114.92768;6.598202;-119.22215;5.391493
2019-11-01T01:55:56;1;-114.50042;7.3199944;-116.764496;6.3395596
2019-11-01T02:00:56;1;-114.61214;7.0702305;-116.555336;6.4296784
2019-11-01T02:05:56;1;-114.64998;6.821481;-116.24018;6.3592615
2019-11-01T02:10:56;1;-115.46576;6.682017;-118.82179;5.562786
2019-11-01T02:15:56;1;-115.103775;7.429833;-120.21696;5.408963
2019-11-01T02:20:56;1;-116.27657;6.893409;-118.51564;6.210711
2019-11-01T02:25:56;1;-116.00475;6.7260327;-119.627266;5.8415775
2019-11-01T02:30:56;1;-116.2857;6.737466;-118.17291;6.237993
2019-11-01T02:35:56;1;-116.33094;6.438583;-118.01704;6.3189864
2019-11-01T02:40:56;1;-114.95537;6.947235;-118.42327;6.2214513
2019-11-01T02:45:56;1;-116.518105;5.7882805;-117.47416;5.705116
2019-11-01T02:50:56;1;-116.119896;6.1488853;-119.81991;5.157551
2019-11-01T02:55:56;1;-116.45561;6.4435015;-119.6676;5.578687
2019-11-01T03:00:56;1;-115.548515;6.458483;-115.76835;6.415097
2019-11-01T03:05:56;1;-114.863335;6.488073;-118.900276;5.516819
2019-11-01T03:10:56;1;-116.40838;6.149733;-117.3005;6.0243244
2019-11-01T03:15:56;1;-117.73172;6.2367544;-118.83512;5.9569907
2019-11-01T03:20:56;1;-116.432686;5.673233;-118.01818;5.4199553
2019-11-01T03:25:56;1;-114.98061;6.0964437;-115.749;5.9872594
2019-11-01T03:30:56;1;-117.15242;6.431968;-118.91916;6.02987
2019-11-01T03:35:56;1;-114.48097;6.8776455;-121.74122;5.052165
2019-11-01T03:40:56;1;-118.95781;5.8636622;-120.95026;5.279413
2019-11-01T03:45:56;1;-116.74761;6.9696865;-116.86695;7.150979
2019-11-01T03:50:56;1;-114.263214;5.857525;-118.37722;4.688081
2019-11-01T03:55:56;1;-116.11963;6.5007653;-116.73652;6.3414745
2019-11-01T04:00:56;1;-113.169914;7.795199;-116.13979;6.9730577
2019-11-01T04:05:56;1;-103.00407;11.43681;-100.48346;12.328024
2019-11-01T04:10:56;1;-116.43641;5.6255107;-117.14446;5.8661118
2019-11-01T04:15:56;1;-103.008896;11.966119;-118.93911;5.3970933
2019-11-01T04:20:56;1;-117.30421;6.1948466;-120.00229;5.6114516
2019-11-01T04:25:56;1;-117.0137;6.152341;-120.48205;5.3988724
2019-11-01T04:30:56;1;-118.899574;5.0420647;-121.135864;4.760005
2019-11-01T04:35:56;1;-104.467316;10.44984;-101.5456;13.830967
2019-11-01T04:40:56;1;-117.602234;5.745294;-120.51439;5.0692463
2019-11-01T04:45:56;1;-98.75397;13.405985;-95.7434;12.562299
2019-11-01T04:50:56;1;-116.78475;6.2971134;-119.532906;5.795431
2019-11-01T04:55:56;1;-116.38298;5.551931;-117.34233;5.589083
2019-11-01T05:00:56;1;-116.36393;6.11092;-119.81114;5.3579817
2019-11-01T05:05:56;1;-116.76525;6.842557;-119.98233;5.8646007
2019-11-01T05:10:56;1;-117.20194;6.3319483;-119.205055;6.249328
2019-11-01T05:15:56;1;-116.774666;6.1914873;-117.64545;6.1319246
2019-11-01T05:20:56;1;-117.42784;5.3376746;-117.442474;5.7348127
2019-11-01T05:25:56;1;-118.26144;5.852842;-118.68349;6.1483874
2019-11-01T05:30:56;1;-116.21011;6.578374;-117.5102;6.0041347
2019-11-01T05:35:56;1;-116.75272;6.9344926;-116.195404;7.759323
2019-11-01T05:40:56;1;-116.61467;6.8706956;-116.71917;6.6985235
2019-11-01T05:45:56;1;-115.08143;6.428142;-119.664764;5.1354713
2019-11-01T05:50:56;1;-114.00985;7.2345743;-118.88016;5.5406804
2019-11-01T05:55:56;1;-113.90679;6.695166;-119.96884;4.548242
2019-11-01T06:00:56;1;-109.35941;8.1544285;-115.99242;5.877643
2019-11-01T06:05:56;1;-110.34265;8.828948;-115.124344;6.107026
2019-11-01T06:10:56;1;-107.21843;10.08393;-120.805984;4.6802382
2019-11-01T06:15:56;1;-104.8098;11.26304;-115.89121;5.6235414
2019-11-01T06:20:56;1;-104.36275;11.739402;-119.83262;5.577111
2019-11-01T06:25:56;1;-104.62293;12.042049;-117.92093;5.866349
2019-11-01T06:30:56;1;-102.650116;12.498605;-119.95624;5.336033
2019-11-01T06:35:56;1;-99.66542;13.796797;-119.329956;5.4278173
2019-11-01T06:40:56;1;-83.46648;22.553581;-119.152466;5.7181478
2019-11-01T06:45:56;1;-83.08647;22.639725;-118.9218;5.868364
2019-11-01T06:50:56;1;-83.067665;22.914099;-120.195885;5.643807
2019-11-01T06:55:56;1;-77.588104;25.25498;-121.615074;5.2384973
2019-11-01T07:00:56;1;-76.65085;25.921183;-120.92961;5.6810174
2019-11-01T07:05:56;1;-74.82683;26.733633;-121.11635;5.268843
2019-11-01T07:10:56;1;-83.17781;23.171879;-123.09649;5.0588417
2019-11-01T07:15:56;1;-78.95371;24.271124;-120.10965;5.6458015
2019-11-01T07:20:56;1;-80.68323;24.093626;-122.84543;5.118027
2019-11-01T07:25:56;1;-78.224;24.771763;-121.26222;5.3382607
2019-11-01T07:30:56;1;-78.812935;25.201319;-122.0121;5.379064
2019-11-01T07:35:56;1;-74.615074;27.702024;-120.918144;6.276345
2019-11-01T07:40:56;1;-74.34805;28.409126;-122.893456;5.369889
2019-11-01T07:45:56;1;-77.515686;27.0339;-122.96053;5.353514
2019-11-01T07:50:56;1;-79.33203;26.297968;-122.267204;5.7168818
2019-11-01T07:55:56;1;-81.86576;24.669813;-122.60787;5.7069197
2019-11-01T08:00:56;1;-79.71258;26.227936;-126.16621;4.9459925
2019-11-01T08:05:56;1;-78.86332;27.382042;-126.39274;4.895122
2019-11-01T08:10:56;1;-79.799416;25.877354;-124.17349;5.6755137
2019-11-01T08:15:56;1;-80.73239;25.959644;-123.749596;5.8032784
2019-11-01T08:20:56;1;-77.62885;27.455359;-125.99017;5.066879
2019-11-01T08:25:56;1;-78.68697;27.811655;-127.63223;4.810129
2019-11-01T08:30:56;1;-78.17982;27.948856;-126.9011;4.7437463
2019-11-01T08:35:56;1;-79.52379;27.233349;-126.82827;4.8202915
2019-11-01T08:40:56;1;-84.358246;24.369385;-128.45007;4.171443
2019-11-01T08:45:56;1;-80.80014;26.055168;-122.39235;6.5409236
2019-11-01T08:50:56;1;-79.63769;26.57286;-126.797775;5.089138
2019-11-01T08:55:56;1;-79.62556;27.094673;-126.4501;5.115309
2019-11-01T09:00:56;1;-78.45103;26.956436;-127.44945;4.9014554
2019-11-01T09:05:56;1;-82.24754;25.346655;-128.03325;4.8617435
2019-11-01T09:10:56;1;-79.04376;27.163351;-126.49563;5.489497
2019-11-01T09:15:56;1;-78.51991;27.256052;-127.94607;4.885175
2019-11-01T09:20:56;1;-80.50873;26.632605;-129.19286;4.3755918
2019-11-01T09:25:56;1;-80.67318;26.176931;-128.8988;4.593816
2019-11-01T09:30:56;1;-79.765335;26.24833;-126.94818;4.606667
2019-11-01T09:35:56;1;-80.51375;26.093441;-126.39453;5.080442
2019-11-01T09:40:56;1;-85.79853;23.884274;-127.60205;5.186282
2019-11-01T09:45:56;1;-84.387436;24.41668;-126.531586;5.5794673
2019-11-01T09:50:56;1;-83.65535;24.755095;-126.67329;5.5774956
2019-11-01T09:55:56;1;-84.80009;24.132969;-124.74037;6.2168922
2019-11-01T10:00:56;1;-81.11043;26.441118;-128.30093;4.824357
2019-11-01T10:05:56;1;-83.66812;25.258352;-128.8566;4.676545
2019-11-01T10:10:56;1;-77.910545;27.272495;-125.193214;5.3807526
2019-11-01T10:15:56;1;-82.65877;25.182884;-126.809296;4.9290113
2019-11-01T10:20:56;1;-82.54469;25.566534;-127.87583;4.6913886
2019-11-01T10:25:56;1;-81.87637;26.053461;-127.63374;5.1229014
2019-11-01T10:30:56;1;-79.86951;27.058363;-129.25603;4.3890533
2019-11-01T10:35:56;1;-81.83603;25.794777;-128.93219;4.3501544
2019-11-01T10:40:56;1;-85.48758;23.632528;-127.42154;4.5175796
2019-11-01T10:45:56;1;-81.5608;26.519434;-129.2373;4.3027887
2019-11-01T10:50:56;1;-79.37415;27.075682;-130.12296;3.8715525
2019-11-01T10:55:56;1;-80.60031;26.695496;-128.84532;4.4739904
2019-11-01T11:00:56;1;-79.14993;27.226072;-129.53917;4.3671064
2019-11-01T11:05:56;1;-79.85365;27.297436;-129.11092;4.3492565
2019-11-01T11:10:56;1;-81.55515;25.519922;-128.03766;4.3095813
2019-11-01T11:15:56;1;-79.49299;27.073181;-129.54085;4.0910487
2019-11-01T11:20:56;1;-80.5263;25.908407;-126.15767;5.31887
2019-11-01T11:25:56;1;-79.76388;27.00444;-128.79578;4.5326614
2019-11-01T11:30:56;1;-79.16463;27.35937;-127.581085;4.8130774
2019-11-01T11:35:56;1;-81.22481;26.452072;-129.04213;4.4240723
2019-11-01T11:40:56;1;-77.63962;27.934551;-127.45248;4.721094
2019-11-01T11:45:56;1;-83.83475;25.106144;-129.68456;4.117334
2019-11-01T11:50:56;1;-85.73288;24.329021;-129.22498;4.4236465
2019-11-01T11:55:56;1;-74.78306;29.030958;-126.472115;5.1610656
2019-11-01T12:00:56;1;-83.79148;25.186203;-129.01645;4.407118
2019-11-01T12:05:56;1;-81.530975;25.92744;-125.56893;4.956784
2019-11-01T12:10:56;1;-80.18711;27.007336;-129.38159;4.0379906
2019-11-01T12:15:56;1;-81.042465;26.261333;-129.67018;3.882191
2019-11-01T12:20:56;1;-81.50666;26.028732;-128.0025;4.4950256
2019-11-01T12:25:56;1;-85.9905;23.899279;-128.3423;4.659603
2019-11-01T12:30:56;1;-86.05596;23.901718;-128.12904;4.634138
2019-11-01T12:35:56;1;-84.80327;24.68943;-128.37721;4.4288144
2019-11-01T12:40:56;1;-77.673096;28.471298;-131.07304;3.7829897
2019-11-01T12:45:56;1;-80.55104;27.184885;-130.71123;3.8974273
2019-11-01T12:50:56;1;-81.20821;26.189148;-129.29759;4.111293
2019-11-01T12:55:56;1;-78.80526;27.799385;-130.29994;3.8015516
2019-11-01T13:00:56;1;-81.61089;26.233988;-128.86983;4.149356
2019-11-01T13:05:56;1;-83.19117;25.324915;-129.65411;3.902041
2019-11-01T13:10:56;1;-78.14351;28.456;-129.25018;4.155557
2019-11-01T13:15:56;1;-80.054146;26.61476;-128.83577;3.8343503
2019-11-01T13:20:56;1;-80.87874;26.419632;-127.88491;4.5690184
2019-11-01T13:25:56;1;-83.055435;24.835514;-126.12636;4.9337234
2019-11-01T13:30:56;1;-80.39253;26.299238;-127.80503;4.213099
2019-11-01T13:35:56;1;-77.8504;27.584398;-128.91533;4.0289974
2019-11-01T13:40:56;1;-80.34072;25.947355;-127.663994;4.4468265
2019-11-01T13:45:56;1;-82.94081;24.499235;-126.16482;4.8332195
2019-11-01T13:50:56;1;-81.50871;25.62407;-127.0656;4.5346293
2019-11-01T13:55:56;1;-82.45172;24.711622;-125.68305;4.8051443
2019-11-01T14:00:56;1;-80.459465;25.807568;-127.30563;3.9111118
2019-11-01T14:05:56;1;-76.91603;28.02519;-127.09198;4.276659
2019-11-01T14:10:56;1;-78.59121;26.375103;-123.8679;5.174098
2019-11-01T14:15:56;1;-76.6526;27.550592;-125.90874;4.7790647
2019-11-01T14:20:56;1;-79.60452;26.571058;-127.59057;4.2789364
2019-11-01T14:25:56;1;-85.75485;22.250809;-126.90704;4.2421355
2019-11-01T14:30:56;1;-78.29903;26.743114;-127.84624;3.9173849
2019-11-01T14:35:56;1;-76.49024;27.109604;-125.712524;4.5199394
2019-11-01T14:40:56;1;-82.023834;24.764317;-126.41478;4.2741694
2019-11-01T14:45:56;1;-76.77934;27.821714;-126.40226;4.053601
2019-11-01T14:50:56;1;-79.267586;26.356853;-127.0317;3.8316522
2019-11-01T14:55:56;1;-81.50708;24.561823;-125.1976;4.3502274
2019-11-01T15:00:56;1;-80.60863;24.793623;-124.45056;4.3086996
2019-11-01T15:05:56;1;-75.2786;27.836666;-122.18489;4.8050795
2019-11-01T15:10:56;1;-78.01556;25.646568;-123.75906;4.305072
2019-11-01T15:15:56;1;-76.51625;26.62029;-123.58142;4.494435
2019-11-01T15:20:56;1;-79.21999;25.62155;-123.98555;4.3722377
2019-11-01T15:25:56;1;-78.85773;25.439764;-122.570145;4.956103
2019-11-01T15:30:56;1;-78.08011;25.055809;-122.410995;5.016831
2019-11-01T15:35:56;1;-79.33796;24.756939;-123.35486;4.499225
2019-11-01T15:40:56;1;-74.49711;26.985804;-123.0327;4.558759
2019-11-01T15:45:56;1;-77.29468;26.294405;-123.05456;4.7264338
2019-11-01T15:50:56;1;-77.64671;26.37089;-124.98012;4.1493273
2019-11-01T15:55:56;1;-81.0008;24.363747;-124.42126;4.284881
2019-11-01T16:00:56;1;-85.81346;21.484188;-123.362976;4.4941635
2019-11-01T16:05:56;1;-83.023636;22.761312;-123.82144;4.3006835
2019-11-01T16:10:56;1;-96.36908;15.985518;-122.81977;4.5943747
2019-11-01T16:15:56;1;-109.871605;10.42921;-121.84336;5.241261
2019-11-01T16:20:56;1;-113.65856;8.360386;-120.67265;5.6152616
2019-11-01T16:25:56;1;-116.7065;7.5243187;-123.157036;5.0996547
2019-11-01T16:30:56;1;-118.03759;7.1736917;-121.042206;5.9250546
2019-11-01T16:35:56;1;-119.57235;6.581669;-122.86847;5.4653234
2019-11-01T16:40:56;1;-119.161995;6.4046082;-122.88235;5.447845
2019-11-01T16:45:56;1;-119.957245;6.0745864;-122.579346;4.9485497
2019-11-01T16:50:56;1;-120.267296;6.1104074;-121.28667;5.641117
2019-11-01T16:55:56;1;-120.862595;6.2697487;-122.75649;5.3129654
2019-11-01T17:00:56;1;-121.77139;5.817112;-125.53772;4.673946
2019-11-01T17:05:56;1;-121.5523;5.881382;-123.23234;5.366688
2019-11-01T17:10:56;1;-120.4583;6.055207;-123.7431;5.0795565
2019-11-01T17:15:56;1;-121.74085;5.568258;-124.219;4.821571
2019-11-01T17:20:56;1;-120.64767;5.992042;-122.42627;5.464419
2019-11-01T17:25:56;1;-120.71867;6.2983813;-123.36742;5.4643755
2019-11-01T17:30:56;1;-119.876785;6.6158547;-121.22463;6.179277
2019-11-01T17:35:56;1;-120.79788;5.6841;-121.68261;5.773341
2019-11-01T17:40:56;1;-117.97526;6.306916;-119.47016;6.202471
2019-11-01T17:45:56;1;-118.359566;6.36331;-120.76262;5.8541536
2019-11-01T17:50:56;1;-121.17374;5.787901;-122.45593;5.497328
2019-11-01T17:55:56;1;-120.42817;6.0940347;-121.23428;5.692278
2019-11-01T18:00:56;1;-121.14239;5.5305953;-123.726555;4.723433
2019-11-01T18:05:56;1;-119.42294;6.348036;-123.69742;4.6622844
2019-11-01T18:10:56;1;-118.02498;5.833891;-120.89296;4.764828
2019-11-01T18:15:56;1;-118.31318;6.5473757;-121.414665;5.366973
2019-11-01T18:20:56;1;-118.5604;6.563544;-123.06286;5.0428376
2019-11-01T18:25:56;1;-119.56096;5.7933283;-123.14652;4.5149107
2019-11-01T18:30:56;1;-118.07732;6.481555;-124.591225;4.0224032
2019-11-01T18:35:56;1;-118.264366;6.61009;-121.93764;4.690603
2019-11-01T18:40:56;1;-112.889275;8.548715;-121.025734;5.10225
2019-11-01T18:45:56;1;-102.0517;13.719548;-124.68901;3.657004
2019-11-01T18:50:56;1;-97.51118;16.013199;-124.91664;3.9297254
2019-11-01T18:55:56;1;-90.31728;19.193014;-122.86696;4.3605285
2019-11-01T19:00:56;1;-98.16895;15.037756;-122.988686;4.24487
2019-11-01T19:05:56;1;-107.48046;11.290347;-122.34209;4.6643643
2019-11-01T19:10:56;1;-116.960396;6.7498612;-122.60248;4.5155263
2019-11-01T19:15:56;1;-117.34108;6.4110417;-121.25332;4.967759
2019-11-01T19:20:56;1;-115.29623;7.780392;-120.81032;4.898224
2019-11-01T19:25:56;1;-111.32435;9.1508665;-122.03973;4.986625
2019-11-01T19:30:56;1;-116.37953;6.8897977;-119.202736;5.59973
2019-11-01T19:35:56;1;-116.87079;6.728596;-121.87512;4.837609
2019-11-01T19:40:56;1;-117.120056;6.8016944;-121.74212;5.08854
2019-11-01T19:45:56;1;-115.977974;7.357241;-122.16936;4.941333
2019-11-01T19:50:56;1;-115.120445;7.5709605;-122.35362;4.972825
2019-11-01T19:55:56;1;-117.49302;6.8114448;-122.052444;5.142181
2019-11-01T20:00:56;1;-119.39316;5.8724895;-122.294075;4.875055
2019-11-01T20:05:56;1;-117.54991;6.6221247;-122.67427;4.843567
2019-11-01T20:10:56;1;-116.243256;7.4114513;-121.41216;5.4174623
2019-11-01T20:15:56;1;-115.79805;7.426471;-121.33679;5.131149
2019-11-01T20:20:56;1;-117.68683;6.429908;-121.956314;4.8658047
2019-11-01T20:25:56;1;-117.89351;5.2267714;-120.260345;4.940124
2019-11-01T20:30:56;1;-118.90073;6.085453;-121.317604;5.0509787
2019-11-01T20:35:56;1;-119.61423;5.568435;-123.80088;4.3757524
2019-11-01T20:40:56;1;-119.93419;5.719703;-121.502335;5.089742
2019-11-01T20:45:56;1;-120.022606;5.5795407;-122.61084;4.660583
2019-11-01T20:50:56;1;-119.886406;5.6266384;-122.05657;4.7368393
2019-11-01T20:55:56;1;-119.77525;5.4220424;-121.28043;5.1817255
2019-11-01T21:00:56;1;-119.85133;5.231315;-122.40591;4.311289
2019-11-01T21:05:56;1;-119.9059;5.5121794;-122.10634;4.78221
2019-11-01T21:10:56;1;-119.26105;5.6366487;-120.55718;4.9519324
2019-11-01T21:15:56;1;-119.25275;5.370051;-119.25253;5.239549
2019-11-01T21:20:56;1;-118.97464;5.990236;-122.28671;4.6873727
2019-11-01T21:25:56;1;-118.04542;6.2971826;-120.97875;5.0554404
2019-11-01T21:30:56;1;-119.15852;5.7389693;-120.38476;5.1595917
2019-11-01T21:35:56;1;-118.88968;6.2447023;-121.12447;5.660907
2019-11-01T21:40:56;1;-119.6856;6.005705;-123.18769;4.715417
2019-11-01T21:45:56;1;-119.5848;5.695386;-122.235054;4.9696627
2019-11-01T21:50:56;1;-120.18265;5.495806;-120.513054;5.3944693
2019-11-01T21:55:56;1;-119.99069;5.855447;-122.72832;5.132209
2019-11-01T22:00:56;1;-119.519485;5.545362;-121.64721;5.211154
2019-11-01T22:05:56;1;-118.499565;5.951527;-121.26145;5.1996837
2019-11-01T22:10:56;1;-118.59911;5.715109;-120.73806;5.044382
2019-11-01T22:15:56;1;-118.1867;5.49053;-119.612976;5.065914
2019-11-01T22:20:56;1;-118.70284;5.460919;-120.96752;4.836236
2019-11-01T22:25:56;1;-119.18976;5.2807155;-121.80279;4.5057635
2019-11-01T22:30:56;1;-115.54554;6.5116754;-120.85702;4.7750564
2019-11-01T22:35:56;1;-118.65537;5.511491;-119.96373;4.8790035
2019-11-01T22:40:56;1;-118.345;5.913642;-120.39875;5.168056
2019-11-01T22:45:56;1;-117.808266;5.7055397;-119.31802;5.194693
2019-11-01T22:50:56;1;-119.042015;5.7536163;-120.09856;5.504962
2019-11-01T22:55:56;1;-119.479355;5.5730042;-122.00696;4.779523
2019-11-01T23:00:56;1;-118.682335;5.747624;-119.88999;5.552748
2019-11-01T23:05:56;1;-111.5264;8.743025;-119.890396;5.17816
2019-11-01T23:10:56;1;-118.56462;5.7936234;-121.259384;4.8690634
2019-11-01T23:15:56;1;-118.39916;5.949008;-119.95956;5.808743
2019-11-01T23:20:56;1;-118.95612;5.464732;-121.15679;5.0044723
2019-11-01T23:25:56;1;-116.75458;6.6252327;-118.95601;6.110785
2019-11-01T23:30:56;1;-117.84196;6.3817134;-119.99513;5.811818
2019-11-01T23:35:56;1;-118.24926;5.9387;-119.869;5.6018677
2019-11-01T23:40:56;1;-118.26228;5.847598;-121.730255;4.928551
2019-11-01T23:45:56;1;-117.80187;6.2033496;-119.75766;5.6559067
2019-11-01T23:50:56;1;-117.320786;6.3980637;-120.540436;5.632869
2019-11-01T23:55:56;1;-117.598694;6.432227;-120.33144;5.5303063
2019-11-02T00:00:56;1;-117.957436;5.9765606;-121.50639;5.125935
2019-11-02T00:05:56;1;-118.68702;5.8931675;-121.80943;5.068512
2019-11-02T00:10:56;1;-118.082664;6.0100827;-119.664;5.6212935
2019-11-02T00:15:56;1;-118.171814;5.6987658;-119.8234;5.323515
2019-11-02T00:20:56;1;-111.71121;8.771049;-117.72107;6.3433743
2019-11-02T00:25:56;1;-117.531075;6.306383;-120.601166;5.6372547
2019-11-02T00:30:56;1;-117.82146;6.1427727;-119.18783;6.1867
2019-11-02T00:35:56;1;-119.07558;5.6591043;-121.24984;5.314312
2019-11-02T00:40:56;1;-118.98804;5.831636;-120.65144;5.578416
2019-11-02T00:45:56;1;-118.14673;6.178002;-120.729095;5.3357267
2019-11-02T00:50:56;1;-118.38181;5.8431945;-120.19875;5.523942
2019-11-02T00:55:56;1;-118.35354;5.990527;-120.94614;5.2289805
2019-11-02T01:00:56;1;-119.94221;5.4043694;-122.21148;4.7612224
2019-11-02T01:05:56;1;-119.09105;5.3490095;-122.14926;4.6309543
2019-11-02T01:10:56;1;-118.511795;6.0850134;-122.43779;4.9000187
2019-11-02T01:15:56;1;-118.18951;5.8856063;-120.5657;5.3510904
2019-11-02T01:20:56;1;-118.18384;5.6169653;-119.60079;5.4694986
2019-11-02T01:25:56;1;-117.84438;5.825644;-119.91929;5.571492
2019-11-02T01:30:56;1;-118.2024;5.6995144;-119.89829;5.6126285
2019-11-02T01:35:56;1;-117.92817;5.4593105;-118.82472;5.766763
2019-11-02T01:40:56;1;-116.73862;6.1720333;-117.97453;6.3372912
2019-11-02T01:45:56;1;-117.10539;5.836502;-118.962234;5.663667
2019-11-02T01:50:56;1;-116.332855;6.0743227;-118.011;5.8848295
2019-11-02T01:55:56;1;-117.243614;5.935706;-119.39528;5.573623
2019-11-02T02:00:56;1;-117.243095;5.7016315;-118.230125;5.6907797
2019-11-02T02:05:56;1;-118.19556;5.3412733;-119.70548;5.318558
2019-11-02T02:10:56;1;-117.29013;5.9380655;-118.81147;5.6511703
2019-11-02T02:15:56;1;-117.60335;5.5433598;-119.54761;5.4683228
2019-11-02T02:20:56;1;-117.74483;5.9383364;-118.26657;6.0642085
2019-11-02T02:25:56;1;-116.909256;6.6437902;-119.145805;6.1692233
2019-11-02T02:30:56;1;-117.86494;6.038989;-118.19659;6.227994
2019-11-02T02:35:56;1;-117.56645;6.397167;-120.17617;5.970661
2019-11-02T02:40:56;1;-118.86731;5.9078465;-119.74848;6.033279
2019-11-02T02:45:56;1;-119.038635;5.9503345;-119.32646;6.394804
2019-11-02T02:50:56;1;-120.06639;5.411597;-120.693886;5.6760397
2019-11-02T02:55:56;1;-118.31778;5.86373;-119.90126;5.997321
2019-11-02T03:00:56;1;-119.092316;5.8381495;-119.20322;6.403384
2019-11-02T03:05:56;1;-120.24365;5.4820876;-121.62877;5.3209157
2019-11-02T03:10:56;1;-118.25224;6.065476;-117.55614;6.952333
2019-11-02T03:15:56;1;-117.97782;6.47266;-119.10054;6.800309
2019-11-02T03:20:56;1;-119.246475;6.150989;-120.865265;6.2244425
2019-11-02T03:25:56;1;-119.14396;6.0723567;-120.720245;6.172295
2019-11-02T03:30:56;1;-119.148026;6.20176;-120.58421;6.3031936
2019-11-02T03:35:56;1;-120.101494;5.973498;-120.6392;6.1687717
2019-11-02T03:40:56;1;-117.83749;6.6603265;-120.17165;6.4114404
2019-11-02T03:45:56;1;-119.38613;5.775474;-119.92037;6.118704
2019-11-02T03:50:56;1;-119.38455;6.1325145;-121.39832;5.853408
2019-11-02T03:55:56;1;-111.85163;9.048914;-117.65823;6.816828
2019-11-02T04:00:56;1;-118.7276;6.496731;-120.42058;6.3925233
2019-11-02T04:05:56;1;-118.52622;6.5049357;-118.83891;6.8881288
2019-11-02T04:10:56;1;-119.12485;6.5506587;-122.25136;6.0394287
2019-11-02T04:15:56;1;-120.24917;6.05204;-121.16441;6.2140474
2019-11-02T04:20:56;1;-119.846954;6.4294677;-121.88141;6.2580423
2019-11-02T04:25:56;1;-119.1406;6.9088097;-121.97023;6.291741
2019-11-02T04:30:56;1;-110.25211;10.195638;-122.84408;5.9754224
2019-11-02T04:35:56;1;-118.13291;7.6302934;-119.18052;7.3311877
2019-11-02T04:40:56;1;-120.16469;6.4081297;-120.92046;6.1713185
2019-11-02T04:45:56;1;-119.38972;6.2869253;-121.157776;5.9300175
2019-11-02T04:50:56;1;-119.28649;6.659237;-119.2908;7.0514984
2019-11-02T04:55:56;1;-118.93998;6.616206;-120.59165;6.6048775
2019-11-02T05:00:56;1;-118.95558;6.790783;-119.18216;7.247831
2019-11-02T05:05:56;1;-120.79945;6.505015;-121.56623;6.842235
2019-11-02T05:10:56;1;-120.87248;6.2418914;-122.77703;6.3116994
2019-11-02T05:15:56;1;-119.03148;6.8445005;-119.16294;7.094352
2019-11-02T05:20:56;1;-119.61751;6.3222027;-121.30672;6.1760178
2019-11-02T05:25:56;1;-120.21973;6.158363;-122.351685;5.921991
2019-11-02T05:30:56;1;-119.88887;6.3664937;-122.00758;6.0324035
2019-11-02T05:35:56;1;-121.7308;5.8596697;-124.12367;5.4581265
2019-11-02T05:40:56;1;-119.766785;6.3740387;-123.738686;5.640318
2019-11-02T05:45:56;1;-121.16124;6.0826035;-124.808846;4.9805393
2019-11-02T05:50:56;1;-118.151054;7.3596263;-124.373215;4.927216
2019-11-02T05:55:56;1;-117.06379;7.7496543;-124.63538;5.0483932
2019-11-02T06:00:56;1;-111.70387;9.057525;-114.215096;8.571629
2019-11-02T06:05:56;1;-108.45839;11.197271;-125.88544;3.867696
2019-11-02T06:10:56;1;-105.05262;12.36198;-122.80211;4.7960634
2019-11-02T06:15:56;1;-103.99175;12.5542965;-124.99183;3.7151213
2019-11-02T06:20:56;1;-84.61966;22.764683;-125.295364;3.587774
2019-11-02T06:25:56;1;-81.41285;24.889505;-125.70374;3.7760243
2019-11-02T06:30:56;1;-86.634224;22.100817;-125.45666;3.891384
2019-11-02T06:35:56;1;-95.93191;17.327759;-126.54008;3.704738
2019-11-02T06:40:56;1;-79.544;25.785208;-124.59259;4.0710497
2019-11-02T06:45:56;1;-79.84907;26.129921;-125.53668;4.1108947
2019-11-02T06:50:56;1;-81.24038;25.364447;-127.28237;3.6447384
2019-11-02T06:55:56;1;-77.87195;26.662878;-126.59166;3.6223435
2019-11-02T07:00:56;1;-78.74729;26.30966;-127.58212;3.7521715
2019-11-02T07:05:56;1;-74.012146;29.161371;-126.73173;3.658877
2019-11-02T07:10:56;1;-80.635956;25.437574;-125.60337;3.9314384
2019-11-02T07:15:56;1;-78.321884;26.144854;-124.94551;4.427856
2019-11-02T07:20:56;1;-81.26727;25.243383;-126.551895;4.1206317
2019-11-02T07:25:56;1;-74.89572;28.824581;-124.66076;4.6538606
2019-11-02T07:30:56;1;-86.25476;22.94006;-125.994576;4.179237
2019-11-02T07:35:56;1;-87.973885;22.189098;-127.15399;3.9870167
2019-11-02T07:40:56;1;-75.76635;28.419447;-128.81128;3.940707
2019-11-02T07:45:56;1;-84.5554;24.602543;-128.87424;4.079648